Stündliche Wetter Aba

Heute, 4 März, Donnerstag

Zeit Temperatur Niederschläge Wind Luftdruck Luftfeuchtigkeit
00:00 +29°C° 0 mm 2 m/S 751 mmHg 80%
01:00 +29°C° 0 mm 2 m/S 750 mmHg 81%
02:00 +29°C° 0 mm 2 m/S 750 mmHg 83%
03:00 +28°C° 0 mm 2 m/S 750 mmHg 85%
04:00 +28°C° 0 mm 1 m/S 750 mmHg 86%
05:00 +28°C° 0 mm 1 m/S 751 mmHg 87%
06:00 +28°C° 0 mm 1 m/S 751 mmHg 89%
07:00 +30°C° 0.1 mm 1 m/S 751 mmHg 79%
08:00 +32°C° 0.1 mm 2 m/S 752 mmHg 69%
09:00 +34°C° 0.1 mm 2 m/S 752 mmHg 59%
10:00 +36°C° 0 mm 2 m/S 751 mmHg 51%
11:00 +37°C° 0 mm 2 m/S 751 mmHg 44%
12:00 +40°C° 0 mm 1 m/S 751 mmHg 36%
13:00 +40°C° 0 mm 1 m/S 750 mmHg 33%
14:00 +41°C° 0 mm 2 m/S 749 mmHg 31%
15:00 +41°C° 0 mm 2 m/S 748 mmHg 29%
16:00 +39°C° 0 mm 3 m/S 748 mmHg 39%
17:00 +36°C° 0 mm 4 m/S 748 mmHg 49%
18:00 +34°C° 0 mm 5 m/S 749 mmHg 60%
19:00 +33°C° 0 mm 5 m/S 749 mmHg 63%
20:00 +32°C° 0 mm 4 m/S 750 mmHg 67%
21:00 +30°C° 0 mm 3 m/S 750 mmHg 70%
22:00 +30°C° 0 mm 3 m/S 750 mmHg 72%
23:00 +30°C° 0 mm 3 m/S 750 mmHg 74%

Morgen, 5 März, Freitag

Zeit Temperatur Niederschläge Wind Luftdruck Luftfeuchtigkeit
00:00 +29°C° 0 mm 2 m/S 751 mmHg 76%
01:00 +29°C° 0 mm 2 m/S 750 mmHg 78%
02:00 +28°C° 0 mm 1 m/S 750 mmHg 80%
03:00 +28°C° 0 mm 1 m/S 750 mmHg 82%
04:00 +28°C° 0 mm 1 m/S 750 mmHg 83%
05:00 +28°C° 0 mm 1 m/S 751 mmHg 84%
06:00 +26°C° 0 mm 0 m/S 751 mmHg 85%
07:00 +30°C° 0.1 mm 1 m/S 752 mmHg 76%
08:00 +32°C° 0.1 mm 1 m/S 752 mmHg 66%
09:00 +34°C° 0.1 mm 1 m/S 753 mmHg 57%
10:00 +36°C° 0 mm 2 m/S 752 mmHg 52%
11:00 +37°C° 0 mm 2 m/S 751 mmHg 48%
12:00 +38°C° 0 mm 2 m/S 751 mmHg 43%
13:00 +38°C° 0.3 mm 2 m/S 750 mmHg 44%
14:00 +37°C° 0.3 mm 3 m/S 749 mmHg 45%
15:00 +37°C° 0.3 mm 3 m/S 748 mmHg 45%
16:00 +35°C° 0 mm 4 m/S 749 mmHg 51%
17:00 +34°C° 0 mm 4 m/S 749 mmHg 58%
18:00 +32°C° 0 mm 5 m/S 750 mmHg 64%
19:00 +32°C° 0 mm 4 m/S 751 mmHg 67%
20:00 +30°C° 0 mm 4 m/S 751 mmHg 69%
21:00 +30°C° 0 mm 4 m/S 752 mmHg 72%
22:00 +29°C° 0 mm 3 m/S 752 mmHg 74%
23:00 +29°C° 0 mm 3 m/S 752 mmHg 76%

übermorgen, 6 März, Samstag

Zeit Temperatur Niederschläge Wind Luftdruck Luftfeuchtigkeit
00:00 +29°C° 0 mm 3 m/S 752 mmHg 78%
01:00 +28°C° 0 mm 2 m/S 751 mmHg 80%
02:00 +28°C° 0 mm 2 m/S 751 mmHg 82%
03:00 +28°C° 0 mm 1 m/S 751 mmHg 84%
04:00 +28°C° 0 mm 1 m/S 752 mmHg 85%
05:00 +27°C° 0 mm 1 m/S 752 mmHg 85%
06:00 +27°C° 0 mm 1 m/S 752 mmHg 86%
07:00 +29°C° 0 mm 1 m/S 753 mmHg 77%
08:00 +31°C° 0 mm 1 m/S 754 mmHg 68%
09:00 +34°C° 0 mm 2 m/S 754 mmHg 58%
10:00 +35°C° 0.1 mm 2 m/S 754 mmHg 54%
11:00 +36°C° 0.1 mm 2 m/S 753 mmHg 50%
12:00 +37°C° 0.1 mm 2 m/S 752 mmHg 46%
13:00 +37°C° 0 mm 2 m/S 752 mmHg 45%
14:00 +37°C° 0 mm 2 m/S 751 mmHg 45%
15:00 +36°C° 0 mm 1 m/S 750 mmHg 44%
16:00 +36°C° 0 mm 2 m/S 750 mmHg 47%
17:00 +35°C° 0 mm 2 m/S 751 mmHg 50%
18:00 +34°C° 0 mm 2 m/S 751 mmHg 52%
19:00 +33°C° 0 mm 3 m/S 751 mmHg 58%
20:00 +31°C° 0 mm 3 m/S 751 mmHg 63%
21:00 +30°C° 0 mm 3 m/S 752 mmHg 68%
22:00 +30°C° 0 mm 3 m/S 752 mmHg 70%
23:00 +29°C° 0 mm 2 m/S 752 mmHg 73%

7 März, Sonntag

Zeit Temperatur Niederschläge Wind Luftdruck Luftfeuchtigkeit
00:00 +29°C° 0 mm 2 m/S 751 mmHg 75%
01:00 +28°C° 0 mm 2 m/S 751 mmHg 78%
02:00 +28°C° 0 mm 1 m/S 751 mmHg 80%
03:00 +28°C° 0 mm 1 m/S 751 mmHg 82%
04:00 +27°C° 0 mm 1 m/S 751 mmHg 83%
05:00 +27°C° 0 mm 1 m/S 752 mmHg 84%
06:00 +27°C° 0 mm 1 m/S 752 mmHg 85%
07:00 +29°C° 0 mm 1 m/S 753 mmHg 77%
08:00 +31°C° 0 mm 1 m/S 753 mmHg 69%
09:00 +32°C° 0 mm 2 m/S 754 mmHg 60%
10:00 +34°C° 0 mm 2 m/S 753 mmHg 56%
11:00 +35°C° 0 mm 2 m/S 753 mmHg 52%
12:00 +36°C° 0 mm 3 m/S 752 mmHg 48%
13:00 +36°C° 0.2 mm 3 m/S 752 mmHg 48%
14:00 +36°C° 0.2 mm 3 m/S 751 mmHg 47%
15:00 +36°C° 0.2 mm 3 m/S 750 mmHg 47%
16:00 +35°C° 0.2 mm 3 m/S 751 mmHg 52%
17:00 +34°C° 0.2 mm 3 m/S 751 mmHg 57%
18:00 +31°C° 0.2 mm 3 m/S 751 mmHg 62%
19:00 +31°C° 0 mm 3 m/S 751 mmHg 66%
20:00 +30°C° 0 mm 4 m/S 752 mmHg 69%
21:00 +29°C° 0 mm 4 m/S 752 mmHg 73%
22:00 +29°C° 0 mm 3 m/S 752 mmHg 76%
23:00 +28°C° 0 mm 2 m/S 751 mmHg 78%

8 März, Montag

Zeit Temperatur Niederschläge Wind Luftdruck Luftfeuchtigkeit
00:00 +28°C° 0 mm 2 m/S 751 mmHg 81%
01:00 +28°C° 0 mm 1 m/S 751 mmHg 83%
02:00 +27°C° 0 mm 1 m/S 751 mmHg 85%
03:00 +27°C° 0 mm 1 m/S 750 mmHg 87%
04:00 +27°C° 0 mm 1 m/S 751 mmHg 88%
05:00 +27°C° 0 mm 1 m/S 751 mmHg 88%
06:00 +27°C° 0 mm 1 m/S 751 mmHg 89%
07:00 +28°C° 0 mm 1 m/S 752 mmHg 81%
08:00 +30°C° 0 mm 1 m/S 753 mmHg 73%
09:00 +31°C° 0 mm 1 m/S 753 mmHg 64%
10:00 +34°C° 0 mm 2 m/S 753 mmHg 59%
11:00 +35°C° 0 mm 2 m/S 752 mmHg 53%
12:00 +36°C° 0 mm 2 m/S 751 mmHg 47%
13:00 +36°C° 0.1 mm 2 m/S 750 mmHg 49%
14:00 +36°C° 0.1 mm 3 m/S 750 mmHg 50%
15:00 +35°C° 0.1 mm 3 m/S 749 mmHg 51%
16:00 +34°C° 0.1 mm 3 m/S 749 mmHg 55%
17:00 +33°C° 0.1 mm 4 m/S 750 mmHg 59%
18:00 +32°C° 0.1 mm 4 m/S 750 mmHg 63%
19:00 +32°C° 0.5 mm 4 m/S 751 mmHg 66%
20:00 +30°C° 0.5 mm 3 m/S 751 mmHg 69%
21:00 +29°C° 0.5 mm 3 m/S 752 mmHg 73%
22:00 +29°C° 0 mm 3 m/S 751 mmHg 74%
23:00 +29°C° 0 mm 3 m/S 751 mmHg 75%

9 März, Dienstag

Zeit Temperatur Niederschläge Wind Luftdruck Luftfeuchtigkeit
00:00 +28°C° 0 mm 3 m/S 751 mmHg 76%
01:00 +28°C° 0 mm 2 m/S 750 mmHg 78%
02:00 +28°C° 0 mm 1 m/S 750 mmHg 79%
03:00 +27°C° 0 mm 1 m/S 750 mmHg 81%
04:00 +27°C° 0 mm 1 m/S 750 mmHg 82%
05:00 +27°C° 0 mm 1 m/S 750 mmHg 83%
06:00 +25°C° 0 mm 0 m/S 751 mmHg 84%
07:00 +29°C° 0 mm 1 m/S 751 mmHg 74%
08:00 +31°C° 0 mm 2 m/S 752 mmHg 65%
09:00 +34°C° 0 mm 2 m/S 752 mmHg 56%
10:00 +35°C° 0 mm 2 m/S 751 mmHg 53%
11:00 +35°C° 0 mm 2 m/S 751 mmHg 51%
12:00 +36°C° 0 mm 2 m/S 750 mmHg 48%
13:00 +36°C° 0.7 mm 3 m/S 750 mmHg 49%
14:00 +36°C° 0.7 mm 3 m/S 749 mmHg 50%
15:00 +35°C° 0.7 mm 3 m/S 748 mmHg 51%
16:00 +34°C° 0.1 mm 3 m/S 748 mmHg 56%
17:00 +33°C° 0.1 mm 3 m/S 749 mmHg 60%
18:00 +31°C° 0.1 mm 3 m/S 749 mmHg 65%
19:00 +30°C° 0 mm 3 m/S 750 mmHg 68%
20:00 +30°C° 0 mm 3 m/S 750 mmHg 71%
21:00 +29°C° 0 mm 3 m/S 751 mmHg 75%
22:00 +29°C° 0 mm 3 m/S 751 mmHg 77%
23:00 +29°C° 0 mm 3 m/S 751 mmHg 78%
Mehr zeigen

Wir brauchen deine Erlaubnis

Meteoprog und unser Service Anbieter werden persönliche Daten aufbewahren, so wie Cookies, Geräte Bezeichnung oder ähnliche Technologien von deinem Gerät und Prozess, so wie Persönliche Daten Inhalte und Werbungen, genauso wie social Media und den Verkehr zu analysieren.

  • Aufbewahrung und/oder Zugang zu deiner Geräte Informationen.

    Cookies, Geräte Bezeichnung oder andere Informationen, können aufbewahrt oder Zugang zu deinem Gerät erhalten, für den Grund, der oben angegeben wird.

  • Personalisierte Werbung und Inhalte, Messungen, Einblick in das Publikum und Produkt Entwicklung.

    Werbungen und Inhalte können personalisiert werden, basierend auf ein Profil. Mehr Daten können besser personalisierte Werbungen und Inhalte hinzufügen. Werbung und Inhalte können gezeigt und gemessen werden. Einblicke über das Publikum, welche die Werbung gesehen haben und den Inhalt, können abgeleitet werden. So wie Daten können genutzt werden, um es zu verbessern oder die Benutzer Erfahrung zu verbessern das System und die Software.

Wenn du “Ich stimme zu” klickst, erlaubst du uns, die Cookies zu benutzen die Geräte Bezeichnung, den Web oder ähnliche Technologien zu benutzen. Deine Settings, können in deinem Gerät bei deinem Browser geändert werden.

Für den bestimmten Zweck, berechtigten Interessen beruhen darauf, mehr als auf den Inhalt. Du kannst mehr darüber in unseren Privaten und Cookie Politik lesen.